(144) Vibilia
ephemeris date magn radius delta ra dec elong phase
Opposition5 May 202612.33.110 AU2.103 AU14h56m-12°56'176.2°1.2°
Today24 Jun 202613.13.031 AU2.329 AU14h23m-11°41'125.3°15.9°
(144) Vibilia - 2026-06-24
astro.vanbuitenen.nl


 
-1 year
-1 month
-1 day
Now
+1 day
+1 month
+1 year

The interactive orbit chart above shows the body's path through the solar system and its position at the given date. Green and blue lines are shown perpendicular to the ecliptic plane: Green if the path is above the ecliptic plane, blue if it is below. (Left-click and drag to rotate the view; Right-click and drag to move the view; Use scroll wheel to zoom in our out.)

The orbital elements of Vibilia are:

            e (Eccentricity)                : 0.2354486
            a (Semimajor axis)              : 2.6538963
            i (Inclination)                 : 4.81579
            Ω (Longitude of ascending node) : 76.16567
            ω (Argument of perihelion)      : 294.39987
            M (Mean anomaly)                : 240.18663
            Epoch                           : 2026 Jun 09

            L (Longitude of perihelion)     : 10.64186
            B (Latitude of perihelion)      : -4.38478
            P (Orbital period in years)     : 4.32            
        

The light curve chart below shows the estimated development of the minor planet's magnitude.


The all-sky chart below shows the path of the minor planet over the same period as the light curve. The current position is marked yellow.





The following chart shows the path of the minor planet in the next few days. The field of view is optimized for (~10x50) binoculars and finderscopes.




Ephemerides:
Date       Time       RA (2000)    DEC (2000)    delta   radius  elong  phase   PA    magn
2026-06-24 00:00 UT   14 23 37.8   -11 41 38     2.329    3.031  125.3   15.9   111   13.1 
2026-06-24 11:29 UT   14 23 32.3   -11 42 03     2.333    3.030  124.8   16.0   110   13.2 
2026-06-25 00:00 UT   14 23 26.7   -11 42 31     2.338    3.029  124.3   16.1   110   13.2 
2026-06-26 00:00 UT   14 23 17.0   -11 43 31     2.348    3.028  123.3   16.3   110   13.2 
2026-06-27 00:00 UT   14 23 08.6   -11 44 37     2.358    3.026  122.3   16.5   110   13.2 
2026-06-28 00:00 UT   14 23 01.6   -11 45 49     2.368    3.024  121.3   16.7   110   13.2 
2026-06-29 00:00 UT   14 22 55.9   -11 47 08     2.379    3.022  120.4   16.9   110   13.2 
2026-06-30 00:00 UT   14 22 51.7   -11 48 34     2.389    3.021  119.4   17.0   110   13.2 
2026-07-01 00:00 UT   14 22 48.7   -11 50 05     2.399    3.019  118.4   17.2   110   13.2 
2026-07-02 00:00 UT   14 22 47.1   -11 51 43     2.410    3.017  117.5   17.4   110   13.3 
2026-07-03 00:00 UT   14 22 46.9   -11 53 27     2.421    3.015  116.6   17.6   110   13.3 
2026-07-04 00:00 UT   14 22 47.9   -11 55 17     2.431    3.014  115.6   17.7   110   13.3 
2026-07-05 00:00 UT   14 22 50.3   -11 57 14     2.442    3.012  114.7   17.9   110   13.3 
2026-07-06 00:00 UT   14 22 54.1   -11 59 16     2.453    3.010  113.8   18.0   110   13.3 
2026-07-07 00:00 UT   14 22 59.1   -12 01 25     2.464    3.008  112.8   18.1   110   13.3 
2026-07-08 00:00 UT   14 23 05.4   -12 03 39     2.475    3.006  111.9   18.3   110   13.3 
2026-07-09 00:00 UT   14 23 13.1   -12 05 59     2.486    3.005  111.0   18.4   110   13.4 
2026-07-10 00:00 UT   14 23 22.0   -12 08 26     2.498    3.003  110.1   18.5   110   13.4 
2026-07-11 00:00 UT   14 23 32.2   -12 10 58     2.509    3.001  109.2   18.7   109   13.4 
2026-07-12 00:00 UT   14 23 43.7   -12 13 35     2.520    2.999  108.3   18.8   109   13.4 
2026-07-13 00:00 UT   14 23 56.5   -12 16 19     2.532    2.997  107.4   18.9   109   13.4 
2026-07-14 00:00 UT   14 24 10.6   -12 19 08     2.543    2.995  106.5   19.0   109   13.4 
2026-07-15 00:00 UT   14 24 25.9   -12 22 02     2.555    2.994  105.7   19.1   109   13.4 
2026-07-16 00:00 UT   14 24 42.5   -12 25 02     2.566    2.992  104.8   19.2   109   13.4 
2026-07-17 00:00 UT   14 25 00.3   -12 28 08     2.578    2.990  103.9   19.3   109   13.5 
2026-07-18 00:00 UT   14 25 19.3   -12 31 18     2.590    2.988  103.1   19.3   109   13.5 
2026-07-19 00:00 UT   14 25 39.5   -12 34 34     2.601    2.986  102.2   19.4   109   13.5 
2026-07-20 00:00 UT   14 26 01.0   -12 37 55     2.613    2.984  101.3   19.5   109   13.5 
2026-07-21 00:00 UT   14 26 23.6   -12 41 21     2.625    2.982  100.5   19.6   109   13.5 
2026-07-22 00:00 UT   14 26 47.4   -12 44 52     2.637    2.980   99.7   19.6   109   13.5 
2026-07-23 00:00 UT   14 27 12.4   -12 48 27     2.649    2.979   98.8   19.7   109   13.5 
2026-07-24 00:00 UT   14 27 38.5   -12 52 08     2.661    2.977   98.0   19.8   109   13.5 


    Terminology:
            
    delta:  distance between minor planet and earth in AU
    radius: distance between minor planet and sun in AU
    magn:   magnitude (brightness) estimate    
    ra:     right ascension in hours (24h = 360deg)
    dec:    declination in degrees
    elong:  elongation in degrees (angle sun-earth-minor planet)    
    phase:  phase angle in degrees (angle sun-minor planet-earth)        
    AU:     Astronomical Unit (mean distance between earth and sun: 149597870.7 km
    

Orbital elements provided by the MPC (Minor Planet Center).
Calculations by a modified version of AAPlus, a C# implementation of the AA+ project by PJ Naughter from the algorithms presented in the book "Astronomical Algorithms" by Jean Meeus.
NGC2000 dso catalog and star labels from VizieR as provided by the Strasbourg astronomical Data Center.
Tycho2 catalog from the ESO archive.